Weather History for Cloquet, MN

Change the Weather History Date:

Saturday, April 19, 2014

  Actual Average Record
Temperature  
Mean Temperature 39 °F -  
Max Temperature 48 °F 48 °F 66 °F (2005)
Min Temperature 30 °F 28 °F 19 °F (2013)
Degree Days  
Heating Degree Days 26    
Moisture  
Dew Point 28 °F    
Average Humidity 69    
Maximum Humidity 93    
Minimum Humidity 46    
Precipitation  
Precipitation 0.01 in - - ()
Sea Level Pressure  
Sea Level Pressure 30.06 in    
Wind  
Wind Speed 9 mph (ESE)    
Max Wind Speed 17 mph    
Max Gust Speed 24 mph    
Visibility 10 miles    
Events      
Averages and records for this station are not official NWS values.
T = Trace of Precipitation, MM = Missing Value Source: NWS Daily Summary

Daily Weather History Graph

Daily Weather History Graph

Search for Another Location

Airport:

Trip Planner

Search our weather history database for the weather conditions in past years. The results will help you decide how hot, cold, wet, or windy it might be!

Date:

Astronomy

Apr. 19, 2014 Rise Set
Actual Time 6:15 AM CDT 8:03 PM CDT
Civil Twilight 5:43 AM CDT 8:35 PM CDT
Nautical Twilight 5:03 AM CDT 9:15 PM CDT
Astronomical Twilight 4:21 AM CDT 9:58 PM CDT
Moon No Moon Rise 9:25 AM CDT (4/19)
Length of Visible Light 14h 52m
Length of Day
13h 48m
Waning Gibbous, 78% of the Moon is Illuminated
Apr 19
Waning Gibbous
Apr 22
Last Quarter
Apr 29
New
May 6
First Quarter
May 14
Full

Hourly Weather History & Observations

Time (CDT) Temp. Windchill Dew Point Humidity Pressure Visibility Wind Dir Wind Speed Gust Speed Precip Events Conditions
12:17 AM 32.0 °F 23.6 °F 21.2 °F 64% 30.26 in 10.0 mi East 10.4 mph 16.1 mph N/A   Clear
12:36 AM 32.0 °F 23.6 °F 21.2 °F 64% 30.25 in 10.0 mi East 10.4 mph - N/A   Clear
12:57 AM 32.0 °F 24.8 °F 21.2 °F 64% 30.24 in 10.0 mi East 8.1 mph 18.4 mph N/A   Clear
1:17 AM 32.0 °F 24.2 °F 21.2 °F 64% 30.24 in 10.0 mi East 9.2 mph - N/A   Scattered Clouds
1:36 AM 32.0 °F 23.6 °F 23.0 °F 69% 30.23 in 10.0 mi East 10.4 mph 18.4 mph N/A   Mostly Cloudy
1:57 AM 32.0 °F 21.6 °F 23.0 °F 69% 30.22 in 10.0 mi East 15.0 mph 18.4 mph N/A   Overcast
2:17 AM 32.0 °F 23.0 °F 24.8 °F 75% 30.22 in 10.0 mi East 11.5 mph - N/A   Overcast
2:36 AM 33.8 °F 24.8 °F 24.8 °F 70% 30.22 in 10.0 mi East 12.7 mph 17.3 mph N/A   Overcast
2:57 AM 33.8 °F 25.8 °F 24.8 °F 70% 30.22 in 10.0 mi East 10.4 mph - N/A   Overcast
3:17 AM 33.8 °F 25.8 °F 24.8 °F 70% 30.20 in 10.0 mi East 10.4 mph - N/A   Overcast
3:36 AM 32.0 °F 23.6 °F 24.8 °F 75% 30.19 in 10.0 mi East 10.4 mph 19.6 mph N/A   Overcast
3:57 AM 33.8 °F 24.8 °F 24.8 °F 70% 30.18 in 10.0 mi East 12.7 mph 16.1 mph N/A   Overcast
4:16 AM 33.8 °F 25.3 °F 24.8 °F 70% 30.16 in 10.0 mi ESE 11.5 mph 17.3 mph N/A   Overcast
4:36 AM 33.8 °F 25.3 °F 24.8 °F 70% 30.15 in 10.0 mi ESE 11.5 mph 24.2 mph N/A   Overcast
4:57 AM 33.8 °F 23.9 °F 24.8 °F 70% 30.10 in 10.0 mi ESE 15.0 mph 21.9 mph N/A   Overcast
5:16 AM 33.8 °F 26.4 °F 24.8 °F 70% 30.13 in 10.0 mi ESE 9.2 mph 18.4 mph N/A   Mostly Cloudy
5:36 AM 33.8 °F 24.3 °F 26.6 °F 75% 30.11 in 10.0 mi ESE 13.8 mph 19.6 mph N/A   Overcast
5:57 AM 33.8 °F 24.8 °F 26.6 °F 75% 30.08 in 10.0 mi ESE 12.7 mph 18.4 mph N/A   Overcast
6:16 AM 33.8 °F 25.3 °F 26.6 °F 75% 30.09 in 10.0 mi ESE 11.5 mph 17.3 mph N/A   Overcast
6:36 AM 33.8 °F 25.3 °F 26.6 °F 75% 30.10 in 10.0 mi ESE 11.5 mph 16.1 mph N/A   Overcast
6:57 AM 33.8 °F 26.4 °F 28.4 °F 81% 30.11 in 7.0 mi ESE 9.2 mph 16.1 mph N/A   Overcast
7:16 AM 33.8 °F 27.0 °F 28.4 °F 81% 30.11 in 10.0 mi ESE 8.1 mph 18.4 mph N/A   Overcast
7:37 AM 33.8 °F 26.4 °F 30.2 °F 87% 30.10 in 10.0 mi ESE 9.2 mph - N/A   Overcast
7:56 AM 33.8 °F 26.4 °F 30.2 °F 87% 30.10 in 10.0 mi ESE 9.2 mph 16.1 mph N/A   Overcast
8:16 AM 33.8 °F 27.0 °F 30.2 °F 87% 30.10 in 5.0 mi SE 8.1 mph - 0.01 in   Overcast
8:37 AM 33.8 °F 26.4 °F 30.2 °F 87% 30.09 in 10.0 mi ESE 9.2 mph - 0.01 in   Overcast
8:56 AM 33.8 °F 25.8 °F 30.2 °F 87% 30.08 in 10.0 mi ESE 10.4 mph 16.1 mph N/A   Overcast
9:16 AM 35.6 °F 29.2 °F 30.2 °F 81% 30.07 in 10.0 mi ESE 8.1 mph - N/A   Overcast
9:36 AM 37.4 °F 28.9 °F 26.6 °F 65% 30.07 in 10.0 mi SE 13.8 mph - N/A   Overcast
9:57 AM 39.2 °F 31.6 °F 26.6 °F 61% 30.06 in 10.0 mi SE 12.7 mph 19.6 mph N/A   Overcast
10:16 AM 39.2 °F 32.0 °F 24.8 °F 56% 30.05 in 10.0 mi SSE 11.5 mph 21.9 mph N/A   Overcast
10:36 AM 41.0 °F 32.5 °F 24.8 °F 53% 30.03 in 10.0 mi SE 17.3 mph 24.2 mph N/A   Mostly Cloudy
10:57 AM 42.8 °F 37.5 °F 24.8 °F 49% 30.03 in 10.0 mi SE 9.2 mph 20.7 mph N/A   Clear
11:16 AM 44.6 °F 38.4 °F 24.8 °F 46% 30.04 in 10.0 mi SSE 12.7 mph 21.9 mph N/A   Clear
11:37 AM 44.6 °F 38.8 °F 26.6 °F 49% 30.04 in 10.0 mi SE 11.5 mph 21.9 mph N/A   Scattered Clouds
11:57 AM 44.6 °F 38.1 °F 26.6 °F 49% 30.03 in 10.0 mi SSE 13.8 mph 20.7 mph N/A   Scattered Clouds
12:16 PM 44.6 °F 39.2 °F 26.6 °F 49% 30.03 in 10.0 mi SSE 10.4 mph - N/A   Scattered Clouds
12:37 PM 44.6 °F 39.2 °F 26.6 °F 49% 30.02 in 10.0 mi SE 10.4 mph - N/A   Overcast
12:57 PM 44.6 °F 40.2 °F 26.6 °F 49% 30.02 in 10.0 mi SE 8.1 mph - N/A   Overcast
1:16 PM 44.6 °F 39.7 °F 28.4 °F 53% 30.02 in 10.0 mi SE 9.2 mph - N/A   Light Drizzle
1:37 PM 44.6 °F 40.2 °F 28.4 °F 53% 30.01 in 10.0 mi SE 8.1 mph - N/A   Overcast
1:57 PM 42.8 °F 40.1 °F 30.2 °F 61% 30.02 in 10.0 mi ESE 4.6 mph - N/A   Overcast
2:16 PM 41.0 °F 35.8 °F 30.2 °F 65% 30.01 in 10.0 mi ESE 8.1 mph - N/A   Overcast
2:37 PM 41.0 °F 36.4 °F 30.2 °F 65% 30.00 in 10.0 mi ESE 6.9 mph - N/A   Overcast
2:57 PM 42.8 °F 38.6 °F 30.2 °F 61% 30.00 in 10.0 mi SE 6.9 mph - N/A   Overcast
3:16 PM 42.8 °F 38.0 °F 30.2 °F 61% 30.00 in 10.0 mi SSE 8.1 mph - N/A   Overcast
3:37 PM 44.6 °F 42.2 °F 30.2 °F 57% 30.00 in 10.0 mi SE 4.6 mph - N/A   Overcast
3:57 PM 46.4 °F 44.3 °F 32.0 °F 57% 30.00 in 10.0 mi SE 4.6 mph - N/A   Mostly Cloudy
4:16 PM 44.6 °F 42.2 °F 32.0 °F 61% 30.00 in 10.0 mi ESE 4.6 mph - N/A   Mostly Cloudy
4:37 PM 46.4 °F 44.3 °F 33.8 °F 62% 29.99 in 10.0 mi SE 4.6 mph - N/A   Scattered Clouds
4:57 PM 48.2 °F - 33.8 °F 58% 29.98 in 10.0 mi SE 8.1 mph - N/A   Clear
5:16 PM 48.2 °F - 33.8 °F 58% 29.98 in 10.0 mi SE 8.1 mph - N/A   Clear
5:37 PM 48.2 °F - 33.8 °F 58% 29.98 in 10.0 mi ESE 5.8 mph - N/A   Clear
5:57 PM 48.2 °F - 33.8 °F 58% 29.98 in 10.0 mi ESE 5.8 mph - N/A   Clear
6:16 PM 48.2 °F - 33.8 °F 58% 29.98 in 10.0 mi ESE 5.8 mph - N/A   Clear
6:37 PM 46.4 °F 44.3 °F 33.8 °F 62% 29.98 in 10.0 mi ESE 4.6 mph - N/A   Clear
6:57 PM 46.4 °F 44.3 °F 33.8 °F 62% 29.98 in 10.0 mi ESE 4.6 mph - N/A   Clear
7:16 PM 42.8 °F 39.3 °F 32.0 °F 66% 29.99 in 10.0 mi ESE 5.8 mph - N/A   Clear
7:37 PM 41.0 °F 36.4 °F 32.0 °F 70% 29.99 in 10.0 mi ESE 6.9 mph - N/A   Clear
7:57 PM 39.2 °F 35.9 °F 30.2 °F 70% 29.99 in 10.0 mi ESE 4.6 mph - N/A   Clear
8:16 PM 37.4 °F 33.8 °F 30.2 °F 75% 29.99 in 10.0 mi ESE 4.6 mph - N/A   Clear
8:37 PM 35.6 °F 30.7 °F 30.2 °F 81% 29.99 in 10.0 mi ESE 5.8 mph - N/A   Clear
8:57 PM 33.8 °F 29.6 °F 30.2 °F 87% 30.00 in 10.0 mi ESE 4.6 mph - N/A   Clear
9:16 PM 33.8 °F 30.8 °F 28.4 °F 81% 30.01 in 10.0 mi SE 3.5 mph - N/A   Clear
9:37 PM 33.8 °F - 28.4 °F 81% 30.01 in 10.0 mi Calm Calm - N/A   Clear
9:57 PM 32.0 °F - 28.4 °F 87% 30.00 in 10.0 mi Calm Calm - N/A   Clear
10:16 PM 32.0 °F - 28.4 °F 87% 30.01 in 10.0 mi Calm Calm - N/A   Clear
10:37 PM 32.0 °F - 28.4 °F 87% 30.01 in 10.0 mi Calm Calm - N/A   Clear
10:57 PM 30.2 °F - 28.4 °F 93% 30.00 in 7.0 mi Calm Calm - N/A   Clear
11:16 PM 30.2 °F - 28.4 °F 93% 30.00 in 7.0 mi Calm Calm - N/A   Clear
11:37 PM 30.2 °F - 28.4 °F 93% 30.00 in 7.0 mi Calm Calm - N/A   Clear
11:57 PM 30.2 °F - 28.4 °F 93% 30.00 in 7.0 mi Calm Calm - N/A   Clear